Погода в Федурино

Россия / Ярославская область     58°02′38″N   40°27′00″E
темп.,
°C
ветер,
м/с
пор.,
м/с
влажн.,
%
обл.,
%
осадки,
мм/ч
давл.,
гПа
погр.,
м
22 января, сб
сб2200:00−8вюв51193100 0.6 1004647
03:00−8вюв51194100 1.1 1005580
06:00−9вюв41093100 0.4 1008476
09:00−10вюв4109496 0.6 1010358
12:00−8вюв4109397 0.1 1012423
15:00−8в4993100 0.1 1013380
18:00−8в3995100 0.1 1016404
21:00−9всв379698 0.3 1018218
23 января, вс
вс2300:00−12всв369773 0.1 1020141
03:00−17св2210079 0.2 102224
06:00−19ссв2210096 0.1 102429
09:00−19с1110079 0.1 102615
12:00−12всв019485 0.0 102993
15:00−11зсз119636 0.0 103010
18:00−17зсз0010066 0.0 10339
21:00−19сз1110076 0.0 10359
24 января, пн
пн2400:00−20зюз0010073 0.0 10379
03:00−21зсз1110086 0.0 10389
06:00−22ю1110060 0.0 10389
09:00−23зюз1110091 0.0 10399
12:00−14ююз239686 0.0 1039117
15:00−12ююз239654 0.0 103795
18:00−18ююз2210076 0.0 103723
21:00−20ююз2310099 0.0 103635
25 января, вт
вт2500:00−20ююз24100100 0.0 103550
03:00−22ю11100100 0.0 103223
06:00−19ю23100100 0.0 103052
09:00−16ю26100100 0.1 1028104
12:00−12ю379581 0.1 1026194
15:00−10ю39935 0.1 1023288
18:00−15ююв269864 0.0 102298
21:00−16ю279963 0.0 1021103
26 января, ср
ср2600:00−18ююв2310090 0.0 102043
03:00−16ююв129987 0.0 102040
06:00−13ююв259777 0.1 1019140
09:00−13ююв269882 0.2 1020138
12:00−10ююв3593100 0.1 1019268
15:00−9юв2594100 0.2 1019292
18:00−10вюв2597100 0.1 1019129
21:00−11в249883 0.3 101869